| time (UTC) | temp F | wind direction | speed knots | gust knots | rain 1hr in | rain 24hr in | rain mn in | humidity % | barometer mb |
| 20260510065522 | 59 | 0.0 | 0.0 | 0.00 | 0.00 | 0.00 | 90 | 1012.0 | |
| 20260510064522 | 60 | 0.0 | 0.0 | 0.00 | 0.00 | 0.00 | 89 | 1012.0 | |
| 20260510063522 | 61 | 0.0 | 0.0 | 0.00 | 0.00 | 0.00 | 89 | 1011.9 | |
| 20260510062522 | 61 | 0.0 | 0.0 | 0.00 | 0.00 | 0.00 | 88 | 1011.9 | |
| 20260510061522 | 62 | 0.0 | 0.0 | 0.00 | 0.00 | 0.00 | 86 | 1012.0 | |
| 20260510060522 | 63 | 0.0 | 0.9 | 0.00 | 0.00 | 0.00 | 86 | 1012.0 | |
| 20260510055522 | 63 | 0.0 | 0.9 | 0.00 | 0.00 | 0.00 | 86 | 1012.0 | |
| 20260510054522 | 64 | 0.0 | 0.9 | 0.00 | 0.00 | 0.00 | 85 | 1012.1 | |
| 20260510053547 | 64 | 0.0 | 2.6 | 0.00 | 0.00 | 0.00 | 84 | 1012.0 | |
| 20260510052522 | 65 | 270 | 0.9 | 1.7 | 0.00 | 0.00 | 0.00 | 84 | 1012.1 |
| 20260510051522 | 65 | 0.0 | 0.9 | 0.00 | 0.00 | 0.00 | 83 | 1012.1 | |
| 20260510050547 | 65 | 0.0 | 0.9 | 0.00 | 0.00 | 0.00 | 82 | 1012.1 | |
| 20260510045547 | 66 | 0.0 | 1.7 | 0.00 | 0.00 | 0.00 | 81 | 1012.0 | |
| 20260510044522 | 66 | 0.0 | 0.9 | 0.00 | 0.00 | 0.00 | 81 | 1012.0 | |
| 20260510043612 | 66 | 0.0 | 2.6 | 0.00 | 0.00 | 0.00 | 81 | 1012.0 | |
| 20260510042522 | 66 | 0.0 | 1.7 | 0.00 | 0.00 | 0.00 | 80 | 1012.0 | |
| 20260510041547 | 66 | 0.0 | 0.0 | 0.00 | 0.00 | 0.00 | 79 | 1012.1 | |
| 20260510040521 | 66 | 0.0 | 0.9 | 0.00 | 0.00 | 0.00 | 79 | 1011.9 | |
| 20260510035546 | 66 | 0.0 | 1.7 | 0.00 | 0.00 | 0.00 | 79 | 1011.9 | |
| 20260510034522 | 66 | 0.0 | 0.0 | 0.00 | 0.00 | 0.00 | 79 | 1011.9 | |
| 20260510033521 | 66 | 0.0 | 1.7 | 0.00 | 0.00 | 0.00 | 78 | 1011.9 | |
| 20260510032521 | 66 | 0.0 | 0.9 | 0.00 | 0.00 | 0.00 | 78 | 1011.8 | |
| 20260510031522 | 66 | 0.0 | 1.7 | 0.00 | 0.00 | 0.00 | 78 | 1011.8 | |
| 20260510030521 | 66 | 0.0 | 0.0 | 0.00 | 0.00 | 0.00 | 78 | 1011.6 | |
| 20260510025521 | 65 | 0.0 | 0.0 | 0.00 | 0.00 | 0.00 | 79 | 1011.5 | |
| 20260510024521 | 65 | 0.0 | 0.0 | 0.00 | 0.00 | 0.00 | 80 | 1011.4 | |
| 20260510023521 | 64 | 0.0 | 0.0 | 0.00 | 0.00 | 0.00 | 81 | 1011.4 | |
| 20260510022521 | 63 | 0.0 | 0.0 | 0.00 | 0.00 | 0.00 | 82 | 1011.3 | |
| 20260510021546 | 62 | 0.0 | 0.0 | 0.00 | 0.00 | 0.00 | 83 | 1011.1 | |
| 20260510020523 | 61 | 0.0 | 0.0 | 0.00 | 0.00 | 0.00 | 84 | 1011.0 | |
| 20260510015521 | 61 | 0.0 | 0.0 | 0.00 | 0.00 | 0.00 | 83 | 1010.8 | |
| 20260510014521 | 62 | 0.0 | 0.0 | 0.00 | 0.00 | 0.00 | 82 | 1010.6 | |
| 20260510013521 | 62 | 0.0 | 0.0 | 0.00 | 0.00 | 0.00 | 81 | 1010.7 | |
| 20260510012521 | 63 | 0.0 | 0.0 | 0.00 | 0.00 | 0.00 | 80 | 1010.4 | |
| 20260510011546 | 63 | 0.0 | 0.0 | 0.00 | 0.00 | 0.00 | 79 | 1010.4 | |
| 20260510010522 | 64 | 0.0 | 0.0 | 0.00 | 0.00 | 0.00 | 78 | 1010.3 | |
| 20260510005521 | 65 | 0.0 | 0.0 | 0.00 | 0.00 | 0.00 | 76 | 1010.2 | |
| 20260510004521 | 66 | 0.0 | 0.0 | 0.00 | 0.00 | 0.00 | 74 | 1010.0 | |
| 20260510003521 | 67 | 0.0 | 0.0 | 0.00 | 0.00 | 0.00 | 71 | 1009.9 | |
| 20260510002521 | 69 | 0.0 | 0.0 | 0.00 | 0.00 | 0.00 | 69 | 1009.8 | |
| 20260510001522 | 70 | 0.0 | 0.0 | 0.00 | 0.00 | 0.00 | 67 | 1009.8 | |
| 20260510000521 | 71 | 0.0 | 0.0 | 0.00 | 0.00 | 0.00 | 65 | 1009.6 | |
| 20260509235521 | 73 | 0.0 | 0.0 | 0.00 | 0.00 | 0.00 | 62 | 1009.5 | |
| 20260509234521 | 74 | 0.0 | 0.0 | 0.00 | 0.00 | 0.00 | 60 | 1009.5 | |
| 20260509233546 | 75 | 0.0 | 0.0 | 0.00 | 0.00 | 0.00 | 55 | 1009.5 | |
| 20260509232521 | 76 | 270 | 0.9 | 2.6 | 0.00 | 0.00 | 0.00 | 54 | 1009.5 |
| 20260509231522 | 76 | 0.0 | 1.7 | 0.00 | 0.00 | 0.00 | 54 | 1009.5 | |
| 20260509230546 | 76 | 270 | 0.9 | 6.1 | 0.00 | 0.00 | 0.00 | 54 | 1009.6 |
| 20260509225521 | 76 | 270 | 1.7 | 6.1 | 0.00 | 0.00 | 0.00 | 53 | 1009.5 |
| 20260509224522 | 77 | 68 | 0.9 | 3.5 | 0.00 | 0.00 | 0.00 | 53 | 1009.4 |
| 20260509223522 | 77 | 270 | 1.7 | 3.5 | 0.00 | 0.00 | 0.00 | 52 | 1009.4 |
| 20260509222521 | 77 | 293 | 1.7 | 7.8 | 0.00 | 0.00 | 0.00 | 52 | 1009.4 |
| 20260509221546 | 77 | 270 | 0.9 | 3.5 | 0.00 | 0.00 | 0.00 | 53 | 1009.6 |
| 20260509220521 | 78 | 270 | 0.9 | 3.5 | 0.00 | 0.00 | 0.00 | 51 | 1009.5 |
| 20260509215521 | 78 | 293 | 0.9 | 3.5 | 0.00 | 0.00 | 0.00 | 52 | 1009.4 |
| 20260509214521 | 77 | 270 | 1.7 | 5.2 | 0.00 | 0.00 | 0.00 | 52 | 1009.3 |
| 20260509213521 | 76 | 270 | 1.7 | 5.2 | 0.00 | 0.00 | 0.00 | 51 | 1009.2 |
| 20260509212521 | 77 | 293 | 1.7 | 5.2 | 0.00 | 0.00 | 0.00 | 53 | 1009.2 |
| 20260509211521 | 77 | 0.0 | 1.7 | 0.00 | 0.00 | 0.00 | 55 | 1009.2 | |
| 20260509210521 | 77 | 270 | 0.9 | 3.5 | 0.00 | 0.00 | 0.00 | 55 | 1009.3 |
| 20260509205521 | 77 | 293 | 1.7 | 7.0 | 0.00 | 0.00 | 0.00 | 53 | 1009.2 |
| 20260509204611 | 79 | 293 | 1.7 | 6.1 | 0.00 | 0.00 | 0.00 | 50 | 1009.1 |
| 20260509203521 | 79 | 293 | 1.7 | 5.2 | 0.00 | 0.00 | 0.00 | 51 | 1008.9 |
| 20260509202521 | 79 | 293 | 2.6 | 7.8 | 0.00 | 0.00 | 0.00 | 51 | 1008.8 |
| 20260509201522 | 79 | 270 | 1.7 | 5.2 | 0.00 | 0.00 | 0.00 | 49 | 1008.9 |
| 20260509201459 | 78 | 270 | 1.7 | 6.1 | 0.00 | 0.00 | 0.00 | 52 | 1009.2 |
| 20260509155016 | 72 | 293 | 2.6 | 6.1 | 0.00 | 0.00 | 0.00 | 55 | 1011.8 |
| 20260509154016 | 73 | 270 | 2.6 | 8.7 | 0.00 | 0.00 | 0.00 | 56 | 1012.1 |
| 20260509153015 | 73 | 293 | 2.6 | 7.8 | 0.00 | 0.00 | 0.00 | 56 | 1012.3 |
| 20260509152016 | 72 | 90 | 2.6 | 5.2 | 0.00 | 0.00 | 0.00 | 58 | 1012.4 |
| 20260509151016 | 72 | 248 | 1.7 | 7.0 | 0.00 | 0.00 | 0.00 | 60 | 1012.5 |
| 20260509150015 | 71 | 293 | 0.9 | 5.2 | 0.00 | 0.00 | 0.00 | 65 | 1012.5 |
| 20260509145015 | 68 | 293 | 1.7 | 4.3 | 0.00 | 0.00 | 0.00 | 67 | 1012.8 |
| 20260509144015 | 68 | 68 | 0.9 | 2.6 | 0.00 | 0.00 | 0.00 | 69 | 1012.9 |
| 20260509143035 | 68 | 293 | 0.9 | 5.2 | 0.00 | 0.00 | 0.00 | 70 | 1013.2 |
| 20260509142016 | 67 | 270 | 0.9 | 4.3 | 0.00 | 0.00 | 0.00 | 71 | 1013.3 |
| 20260509141015 | 66 | 270 | 0.9 | 5.2 | 0.00 | 0.00 | 0.00 | 71 | 1013.3 |
| 20260509140015 | 66 | 270 | 0.9 | 4.3 | 0.00 | 0.00 | 0.00 | 72 | 1013.3 |
| 20260509135035 | 65 | 270 | 0.9 | 4.3 | 0.00 | 0.00 | 0.00 | 73 | 1013.3 |
| 20260509134015 | 65 | 0 | 0.9 | 4.3 | 0.00 | 0.00 | 0.00 | 74 | 1013.4 |
| 20260509133035 | 64 | 270 | 0.9 | 3.5 | 0.00 | 0.00 | 0.00 | 75 | 1013.6 |
| 20260509132016 | 64 | 293 | 1.7 | 10.4 | 0.00 | 0.00 | 0.00 | 75 | 1013.7 |
| 20260509131016 | 64 | 270 | 0.9 | 3.5 | 0.00 | 0.00 | 0.00 | 76 | 1013.7 |
| 20260509130015 | 63 | 270 | 0.9 | 2.6 | 0.00 | 0.00 | 0.00 | 77 | 1013.6 |
| 20260509125015 | 61 | 270 | 0.9 | 3.5 | 0.00 | 0.00 | 0.00 | 79 | 1013.5 |
| 20260509124016 | 61 | 45 | 0.9 | 4.3 | 0.00 | 0.00 | 0.00 | 80 | 1013.6 |
| 20260509123015 | 60 | 45 | 0.9 | 2.6 | 0.00 | 0.00 | 0.00 | 81 | 1013.6 |
| 20260509122016 | 60 | 270 | 0.9 | 1.7 | 0.00 | 0.00 | 0.00 | 82 | 1013.6 |
| 20260509121015 | 59 | 270 | 0.9 | 7.0 | 0.00 | 0.00 | 0.00 | 82 | 1013.8 |
| 20260509120016 | 58 | 270 | 0.9 | 2.6 | 0.00 | 0.00 | 0.00 | 83 | 1013.7 |
| 20260509115016 | 58 | 293 | 0.9 | 3.5 | 0.00 | 0.00 | 0.00 | 83 | 1013.6 |
| 20260509114016 | 57 | 90 | 0.9 | 5.2 | 0.00 | 0.00 | 0.00 | 83 | 1013.6 |
| 20260509113016 | 57 | 0.0 | 4.3 | 0.00 | 0.00 | 0.00 | 84 | 1013.6 | |
| 20260509112015 | 56 | 0.0 | 2.6 | 0.00 | 0.00 | 0.00 | 86 | 1013.4 | |
| 20260509111016 | 55 | 0.0 | 2.6 | 0.00 | 0.00 | 0.00 | 86 | 1013.5 | |
| 20260509110036 | 54 | 0.0 | 1.7 | 0.00 | 0.00 | 0.00 | 87 | 1013.5 | |
| 20260509105015 | 54 | 0.0 | 0.9 | 0.00 | 0.00 | 0.00 | 87 | 1013.5 | |
| 20260509104035 | 54 | 0.0 | 1.7 | 0.00 | 0.00 | 0.00 | 87 | 1013.4 | |
| 20260509103015 | 54 | 0.0 | 0.9 | 0.00 | 0.00 | 0.00 | 87 | 1013.5 | |
| 20260509102015 | 53 | 0.0 | 0.0 | 0.00 | 0.00 | 0.00 | 87 | 1013.4 | |
| 20260509101015 | 53 | 0.0 | 1.7 | 0.00 | 0.00 | 0.00 | 88 | 1013.5 | |
| 20260509100015 | 52 | 0.0 | 1.7 | 0.00 | 0.00 | 0.00 | 89 | 1013.4 | |
| 20260509095015 | 51 | 0.0 | 0.0 | 0.00 | 0.00 | 0.00 | 91 | 1013.5 | |
| 20260509094016 | 50 | 0.0 | 0.0 | 0.00 | 0.00 | 0.00 | 88 | 1013.6 | |
| 20260509093015 | 51 | 0.0 | 0.0 | 0.00 | 0.00 | 0.00 | 87 | 1013.6 | |
| 20260509092036 | 51 | 0.0 | 1.7 | 0.00 | 0.00 | 0.00 | 89 | 1013.7 | |
| 20260509091015 | 51 | 0.0 | 0.0 | 0.00 | 0.00 | 0.00 | 87 | 1013.6 | |
| 20260509090035 | 51 | 0.0 | 0.0 | 0.00 | 0.00 | 0.00 | 86 | 1013.6 | |
| 20260509085015 | 52 | 0.0 | 0.0 | 0.00 | 0.00 | 0.00 | 85 | 1013.7 | |
| 20260509084016 | 53 | 0.0 | 0.0 | 0.00 | 0.00 | 0.00 | 83 | 1013.6 | |
| 20260509083015 | 54 | 0.0 | 0.0 | 0.00 | 0.00 | 0.00 | 81 | 1013.5 | |
| 20260509082015 | 54 | 0.0 | 0.9 | 0.00 | 0.00 | 0.00 | 81 | 1013.4 | |
| 20260509081035 | 53 | 0.0 | 0.9 | 0.00 | 0.00 | 0.00 | 83 | 1013.4 | |
| 20260509080015 | 53 | 0.0 | 0.0 | 0.00 | 0.00 | 0.00 | 83 | 1013.2 | |
| 20260509075015 | 53 | 0.0 | 0.0 | 0.00 | 0.00 | 0.00 | 82 | 1013.5 | |
| 20260509074015 | 54 | 0.0 | 0.0 | 0.00 | 0.00 | 0.00 | 80 | 1013.6 | |
| 20260509073017 | 55 | 0.0 | 0.0 | 0.00 | 0.00 | 0.00 | 78 | 1013.8 | |
| 20260509072018 | 56 | 0.0 | 0.9 | 0.00 | 0.00 | 0.00 | 76 | 1013.9 | |
| 20260509071018 | 56 | 0.0 | 0.0 | 0.00 | 0.00 | 0.00 | 75 | 1014.0 |